weather.gov     
National Weather Service

Terminal Aerodrome Forecast
NWS Homepage
This page is being discontinued on March 12, 2014.
The same data is available at this site. Please update your bookmarks.
Thank you, and we apologize for the inconvenience.
Please send an email to SR-SRH.Webmaster@noaa.gov with any concerns.


Current Version
Previous Version:    01  02  03  04  05  06  07  08  09  10  11  12  13  14  
[Printable]
083
FTUS41 KGYX 211126
TAFPSM
TAF
KPSM 211126Z 2112/2212 04005KT P6SM OVC050
     FM211500 08007KT P6SM -RA OVC025
     FM211800 08008KT 4SM -RA BR OVC010
     FM220500 03007G17KT 2SM -RA BR OVC007=


083
FTUS41 KGYX 211126
TAFPSM
TAF
KPSM 211126Z 2112/2212 04005KT P6SM OVC050
     FM211500 08007KT P6SM -RA OVC025
     FM211800 08008KT 4SM -RA BR OVC010
     FM220500 03007G17KT 2SM -RA BR OVC007=




U.S. Dept. of Commerce
NOAA National Weather Service
1325 East West Highway
Silver Spring, MD 20910
E-mail: w-nws.webmaster@noaa.gov
Page last modified: May 16, 2007
NATIONAL WEATHER SERVICE: for Safety, for Work, for Fun - FOR LIFE